Regional Weather Roundup
Issued by NWS

Home | Current Version | Previous Version | Graphics & Text | Print | Product List | Glossary On
Versions: 1 2 3 4 5 6 7 8 9 10 11 12 13 14 15 16 17 18 19 20 21 22 23 24 25 26 27 28 29 30 31 32 33 34 35 36 37 38 39 40 41 42 43 44 45 46 47 48 49 50
000
ASUS43 KOAX 021410
RWRNE

WEATHER ROUNDUP FOR NEBRASKA
NATIONAL WEATHER SERVICE OMAHA NE
800 AM CST MON MAR 02 2015

NOTES: SATELLITE DATA IS BEING USED TO AUGMENT CLOUD COVER ABOVE
       12000 FEET.
       "FAIR" INDICATES FEW OR NO CLOUDS BELOW 12,000 FEET WITH NO
       SIGNIFICANT WEATHER AND/OR OBSTRUCTIONS TO VISIBILITY.

  * THESE STATIONS DO NOT REPORT WEATHER SUCH AS RAIN...SNOW OR FOG.

NEZ001>004-019>022-054>056-021500-
NEBRASKA PANHANDLE

CITY           SKY/WX    TMP DP  RH WIND       PRES   REMARKS
SCOTTSBLUFF    CLOUDY    29  20  69 SE13      30.03F WCI  19
ALLIANCE       CLOUDY    26  19  74 S16       30.04F WCI  14
CHADRON        MOCLDY    32  17  54 S26G33    29.99F WCI  18
KIMBALL        CLOUDY    26  21  82 S16G24    30.00F WCI  13
SIDNEY         CLOUDY    27  18  69 S20G28    30.05F WCI  13
$$

NEZ057>060-069>072-079>082-021500-
SOUTHWEST NEBRASKA

CITY           SKY/WX    TMP DP  RH WIND       PRES   REMARKS
NORTH PLATTE   CLOUDY    30  18  60 S14       30.23F WCI  19
IMPERIAL         N/A     28  17  63 S17       30.19F WCI  16
LEXINGTON      CLOUDY    31  22  70 S13       30.31R WCI  21
MCCOOK         PTCLDY    28  21  75 S10       30.28F WCI  19
OGALLALA       CLOUDY    30  20  67 S15G23    30.16F WCI  19
$$

NEZ005>010-023>029-035>040-094-021500-
NORTH CENTRAL NEBRASKA

CITY           SKY/WX    TMP DP  RH WIND       PRES   REMARKS
VALENTINE      CLOUDY    26  11  52 S21G28    30.18F WCI  12
AINSWORTH      CLOUDY    26  12  55 S16G23    30.22S WCI  13
BROKEN BOW     CLOUDY    28  14  55 SE10      30.28F WCI  19
O`NEILL        CLOUDY    24  15  67 SE12      30.31F WCI  13
ORD            CLOUDY    26  12  55 SE9       30.33R WCI  17
THEDFORD       CLOUDY    29  16  57 S14       30.20F WCI  18
$$

NEZ041-046>049-061>064-073>077-083>087-021500-
SOUTH CENTRAL NEBRASKA

CITY           SKY/WX    TMP DP  RH WIND       PRES   REMARKS
GRAND ISLAND   CLOUDY    26  14  60 SE8       30.38R WCI  18
AURORA         CLOUDY    27  16  63 SE9       30.38R WCI  18
HASTINGS       CLOUDY    28  20  71 S9        30.36R WCI  19
HEBRON         CLOUDY    30  24  77 S5        30.42R WCI  25
HOLDREGE       CLOUDY    28  24  83 S10       30.32F WCI  19
KEARNEY *      CLOUDY    28  19  69 S17       30.34R WCI  16
YORK           CLOUDY    27  18  69 SE12      30.40R WCI  16
$$

NEZ011>018-030>034-042>045-021500-
NORTHEAST NEBRASKA

CITY           SKY/WX    TMP DP  RH WIND       PRES   REMARKS
NORFOLK        MOCLDY    19  13  77 SE7       30.40S WCI  10
ALBION         CLOUDY    22  14  71 SE7       30.38R WCI  14
BLAIR          MOSUNNY   24  16  73 E8        30.44S WCI  15
COLUMBUS *     CLOUDY    23  10  58 E6        30.43R WCI  16
FREMONT        PTSUNNY   24  16  71 E6        30.44F WCI  17
TEKAMAH        MOSUNNY   17  12  80 CALM      30.48R
WAYNE          CLOUDY    13   9  84 CALM      30.44R
$$

NEZ050>053-065>068-078-088>093-021500-
SOUTHEAST NEBRASKA

CITY           SKY/WX    TMP DP  RH WIND       PRES   REMARKS
LINCOLN        PTSUNNY   25  17  72 E5        30.45S WCI  19
OMAHA EPPLEY   PTSUNNY   22  16  78 CALM      30.47S
BEATRICE       CLOUDY    28  21  76 SE5       30.43S WCI  22
FALLS CITY     CLOUDY    26  22  84 E5        30.47R WCI  20
NEBRASKA CITY  PTSUNNY   26  17  69 SE6       30.46R WCI  19
PLATTSMOUTH    MOSUNNY   23  15  70 E5        30.45F WCI  17
$$

NEZ044-045-051>053-067-021500-
OMAHA AREA

CITY           SKY/WX    TMP DP  RH WIND       PRES   REMARKS
OMAHA EPPLEY   PTSUNNY   22  16  78 CALM      30.47S
BLAIR          MOSUNNY   24  16  73 E8        30.44S WCI  15
FREMONT        PTSUNNY   24  16  71 E6        30.44F WCI  17
MILLARD        MOSUNNY   25  16  67 E3        30.46F
OFFUTT AFB     MOSUNNY   22  15  74 E7        30.46S WCI  14
PLATTSMOUTH    MOSUNNY   23  15  70 E5        30.45F WCI  17
WAHOO          FAIR      22  16  75 E5        30.44S WCI  16
$$



USA.gov is the U.S. government's official web portal to all federal, state and local government web resources and services.